Weather History for Central Park, NY

Change the Weather History Date:

Sunday, March 3, 2013

  Actual Average Record
Temperature  
Mean Temperature 35 °F 39 °F  
Max Temperature 40 °F 45 °F 65 °F (1991)
Min Temperature 29 °F 32 °F 11 °F (2003)
Degree Days  
Heating Degree Days 30 26  
Month to date heating degree days 83 80  
Since 1 July heating degree days 3456 3602  
Cooling Degree Days 0 0  
Month to date cooling degree days 0 0  
Year to date cooling degree days 0 0  
Moisture  
Dew Point 17 °F    
Average Humidity 56    
Maximum Humidity 72    
Minimum Humidity 40    
Precipitation  
Precipitation T in 0.12 in 2.25 in (1906)
Month to date precipitation T 0.37  
Year to date precipitation 7.01 7.11  
Snow  
Snow T in 0.20 in 12.50 in (1960)
Month to date snowfall T 0.6  
Since 1 July snowfall 18.8 21.9  
Snow Depth 0.00 in    
Sea Level Pressure  
Sea Level Pressure 29.72 in    
Wind  
Wind Speed 8 mph (NW)    
Max Wind Speed 16 mph    
Max Gust Speed 25 mph    
Visibility 10 miles    
Events Snow    
T = Trace of Precipitation, MM = Missing Value Source: NWS Daily Summary

Daily Weather History Graph

Daily Weather History Graph

Search for Another Location

Airport:

Trip Planner

Search our weather history database for the weather conditions in past years. The results will help you decide how hot, cold, wet, or windy it might be!

Date:

Astronomy

Mar. 03, 2013 Rise Set
Actual Time 6:26 AM EST 5:49 PM EST
Civil Twilight 5:59 AM EST 6:17 PM EST
Nautical Twilight 5:27 AM EST 6:48 PM EST
Astronomical Twilight 4:55 AM EST 7:20 PM EST
Moon No Moon Rise 9:37 AM EST (3/3)
Length of Visible Light 12h 18m
Length of Day
11h 23m
Waning Gibbous, 64% of the Moon is Illuminated
Mar 3
Waning Gibbous
Mar 4
Last Quarter
Mar 11
New
Mar 19
First Quarter
Mar 27
Full

Hourly Weather History & Observations

Time (EST) Temp. Windchill Dew Point Humidity Pressure Visibility Wind Dir Wind Speed Gust Speed Precip Events Conditions
12:51 AM 30.9 °F 25.2 °F 21.9 °F 69% 29.74 in 6.0 mi Variable 5.8 mph - 0.00 in Snow Light Snow
1:51 AM 30.9 °F - 19.9 °F 64% 29.73 in 10.0 mi Calm Calm - 0.00 in   Overcast
2:51 AM 30.0 °F 21.1 °F 19.9 °F 66% 29.72 in 6.0 mi NW 10.4 mph 17.3 mph 0.00 in Snow Light Snow
3:51 AM 30.0 °F 24.1 °F 18.0 °F 61% 29.72 in 10.0 mi Variable 5.8 mph - 0.00 in   Overcast
4:51 AM 30.0 °F 24.1 °F 17.1 °F 59% 29.72 in 10.0 mi NW 5.8 mph - N/A   Overcast
5:51 AM 28.9 °F 19.8 °F 16.0 °F 58% 29.73 in 10.0 mi NW 10.4 mph 18.4 mph N/A   Overcast
6:51 AM 28.9 °F 19.8 °F 16.0 °F 58% 29.73 in 10.0 mi NW 10.4 mph 17.3 mph N/A   Overcast
7:51 AM 28.9 °F 22.8 °F 15.1 °F 56% 29.74 in 10.0 mi Variable 5.8 mph - N/A   Overcast
8:51 AM 30.0 °F 21.7 °F 16.0 °F 56% 29.74 in 10.0 mi NW 9.2 mph - N/A   Overcast
9:51 AM 30.0 °F 21.7 °F 15.1 °F 54% 29.73 in 10.0 mi NW 9.2 mph 17.3 mph N/A   Overcast
10:51 AM 32.0 °F 24.2 °F 16.0 °F 52% 29.73 in 10.0 mi NW 9.2 mph - N/A   Overcast
11:51 AM 33.1 °F 26.9 °F 16.0 °F 50% 29.72 in 10.0 mi West 6.9 mph 17.3 mph N/A   Mostly Cloudy
12:51 PM 36.0 °F 28.5 °F 16.0 °F 44% 29.69 in 10.0 mi NW 10.4 mph - N/A   Clear
1:51 PM 37.9 °F 31.5 °F 17.1 °F 43% 29.67 in 10.0 mi WNW 9.2 mph - N/A   Partly Cloudy
2:51 PM 39.0 °F 34.8 °F 17.1 °F 41% 29.66 in 10.0 mi Variable 5.8 mph 17.3 mph N/A   Partly Cloudy
3:51 PM 39.0 °F 35.7 °F 17.1 °F 41% 29.66 in 10.0 mi Variable 4.6 mph 19.6 mph N/A   Scattered Clouds
4:51 PM 37.0 °F 32.4 °F 18.0 °F 46% 29.68 in 10.0 mi Variable 5.8 mph 19.6 mph N/A   Partly Cloudy
5:51 PM 35.1 °F 29.3 °F 18.0 °F 50% 29.70 in 10.0 mi Variable 6.9 mph 18.4 mph N/A   Clear
6:51 PM 34.0 °F 28.8 °F 17.1 °F 50% 29.72 in 10.0 mi Variable 5.8 mph - N/A   Mostly Cloudy
7:51 PM 33.1 °F 26.1 °F 16.0 °F 50% 29.73 in 10.0 mi NW 8.1 mph 19.6 mph N/A   Mostly Cloudy
8:51 PM 30.9 °F 22.2 °F 16.0 °F 54% 29.75 in 10.0 mi NW 10.4 mph 18.4 mph N/A   Clear
9:51 PM 30.9 °F 24.3 °F 15.1 °F 52% 29.76 in 10.0 mi Variable 6.9 mph 23.0 mph N/A   Overcast
10:51 PM 30.0 °F 21.1 °F 15.1 °F 54% 29.75 in 10.0 mi WNW 10.4 mph 20.7 mph N/A   Clear
11:51 PM 28.9 °F 20.4 °F 14.0 °F 54% 29.76 in 10.0 mi WNW 9.2 mph 20.7 mph N/A   Partly Cloudy